www.pogodaiklimat.ru

Погода и климат >> Архив погоды >> Филиппины >> Котобато


ПОГОДА в Котобато

  • Прогноз погоды в Котобато
  • Монитор погоды в Котобато

АРХИВ ПОГОДЫ в Котобато

Время (UTC), дата Ветер
(напр.,м/с)
 
Видим.   Явления Облачность Т
(С)
Тd
(С)
f
(%)
Тe
(С)
Тes
(С)
Комфортность P
(гПа)
Po
(гПа)
Тmin
(С)
Tmax
(С)
R
(мм)
R24
(мм)
S
(см)
15 12.08 ЮВ 1 12 км мгла {туман} 5/3 540 м
[Cu med, cong Ci sp]
+25.8 +23.2 86 +35 +35 очень
душно
1011.9 1005.2
18 12.08 ЮЗ 2 12 км мгла {туман} 5/3 540 м
[Cu med, cong Ci sp]
+24.9 +22.7 88 +33 +33 очень
душно
1010.6 1003.9
21 12.08 штиль 0 12 км мгла {туман} 8/3 540 м
[Cu med, cong Cs]
+23.8 +21.9 89 +31 +31 очень
душно
1010.3 1003.6
00 13.08 ЮВ 1 10 км мгла {туман} 9/4 540 м
[Cu hum Cs]
+27.5 +23.6 79 +37 +42 очень
душно
1010.9 1004.3 +22.0
03 13.08 СВ 2 12 км мгла {туман} 6/3 540 м
[Cu med, cong Ci sp]
+33.2 +25.4 64 +48 +61 опасность
перегрева
1010.2 1003.7
06 13.08 СЗ 3 12 км мгла {туман} 6/3 540 м
[Cu med, cong Ci sp]
+33.0 +22.5 54 +42 +50 опасность
перегрева
1008.5 1002.0
09 13.08 З 2 12 км мгла {туман} 5/4 540 м
[Cu med, cong Ci sp]
+31.0 +23.4 64 +42 +42 опасность
перегрева
1008.8 1002.2
12 13.08 Ю 2 12 км мгла {туман} 5/3 540 м
[Cu med, cong Ci sp]
+28.0 +24.0 79 +39 +39 очень
душно
1011.5 1004.9 +34.2
15 13.08 Ю 1 10 км мгла {туман} 10/4 500 м
[Cu Sc Ac As Cs]
+27.0 +24.3 85 +38 +38 очень
душно
1012.0 1005.3
18 13.08 штиль 0 12 км мгла {туман} 5/3 540 м
[Cu med, cong Ci sp]
+25.6 +23.2 87 +34 +34 очень
душно
1010.0 1003.3
21 13.08 Ю 1 12 км мгла {туман} 5/3 540 м
[Cu med, cong Ci sp]
+25.0 +22.8 88 +33 +33 очень
душно
1010.1 1003.4
00 14.08 В 2 12 км мгла {туман} 5/3 540 м
[Cu hum Cs]
+27.4 +24.5 84 +39 +43 очень
душно
1012.2 1005.5 +22.8
03 14.08 В 2 12 км мгла {туман} 5/3 540 м
[Cu hum Ci sp]
+34.0 +25.8 62 +49 +63 опасность
перегрева
1010.5 1004.0
06 14.08 СЗ 4 12 км мгла {туман} 6/4 500 м
[Cb calv Ci sp]
+32.2 +22.7 57 +42 +47 опасность
перегрева
1008.1 1001.6
09 14.08 С 2 12 км мгла {туман} 9/4 500 м
[Cb cap Cs]
+30.2 +24.0 69 +42 +42 опасность
перегрева
1008.5 1001.9
12 14.08 ЮЗ 1 10 км мгла {туман} 10/4 500 м
[Cu Sc Ac As Cs]
+28.8 +24.6 78 +41 +41 опасность
перегрева
1010.5 1003.9 +35.2
18 14.08 Ю 2 12 км мгла {туман} 5/4 540 м
[Cu med, cong Ci sp]
+25.4 +23.5 89 +34 +34 очень
душно
1009.9 1003.2
21 14.08 штиль 0 12 км мгла {туман} 6/3 540 м
[Cu med, cong Ci sp]
+24.9 +23.0 89 +33 +33 очень
душно
1009.5 1002.8
00 15.08 ЮВ 2 12 км мгла {туман} 5/3 540 м
[Cu hum Cs]
+27.6 +24.3 82 +39 +43 очень
душно
1012.5 1005.8 +22.5
03 15.08 СВ 1 10 км мгла {туман} 5/3 540 м
[Cu hum Cs]
+33.0 +22.7 55 +43 +59 опасность
перегрева
1011.3 1004.8
06 15.08 СЗ 3 10 км мгла {туман} 6/4 500 м
[Cb cap Ci sp]
+30.8 +23.4 65 +42 +49 опасность
перегрева
1008.5 1001.9
09 15.08 ЮЗ 2 12 км мгла {туман} 9/4 500 м
[Cb cap Cs]
+30.0 +24.4 72 +42 +43 опасность
перегрева
1009.0 1002.4
12 15.08 Ю 2 10 км мгла {туман} 10/4 480 м
[Cb cap Ac As Cs]
+27.5 +22.8 76 +37 +37 очень
душно
1011.5 1004.9 +34.6
15 15.08 Ю 2 12 км мгла {туман} 4/3 540 м
[Cu med, cong Ci sp]
+26.4 +23.1 82 +35 +35 очень
душно
1010.3 1003.6
18 15.08 ЮЗ 2 12 км мгла {туман} 8/4 540 м
[Cu med, cong Cs]
+25.2 +23.2 89 +34 +34 очень
душно
1009.0 1002.3
21 15.08 штиль 0 12 км мгла {туман} 8/4 540 м
[Cu med, cong Cs]
+24.5 +22.8 90 +32 +32 очень
душно
1009.6 1002.9
00 16.08 В 5 12 км мгла {туман} 6/3 540 м
[Cu med, cong Ci sp]
+28.6 +24.4 78 +40 +43 очень
душно
1012.3 1005.7 +23.0
03 16.08 В 2 12 км мгла {туман} 5/3 540 м
[Cu hum Ci fib]
+33.6 +25.2 62 +48 +62 опасность
перегрева
1011.3 1004.8
06 16.08 С 2 12 км мгла {дождь} 6/4 500 м
[Cb cap Ci sp]
+31.8 +23.6 62 +43 +51 опасность
перегрева
1008.7 1002.2 3
09 16.08 СЗ 2 10 км мгла {туман} 8/4 500 м
[Cb cap Cs]
+30.6 +24.7 71 +43 +44 опасность
перегрева
1009.1 1002.5
12 16.08 штиль 0 12 км мгла {туман} 8/4 500 м
[Cu Sc Cs]
+28.0 +24.1 79 +39 +39 очень
душно
1011.2 1004.6 +33.0
15 16.08 ЮЗ 2 12 км зарница {туман} 5/3 540 м
[Cu med, cong Cs]
+26.7 +23.3 82 +36 +36 очень
душно
1010.5 1003.8
18 16.08 ЮЗ 2 12 км мгла {туман} 8/3 540 м
[Cu med, cong Cs]
+24.4 +23.0 92 +32 +32 очень
душно
1009.4 1002.7
21 16.08 Ю 2 12 км мгла {туман} 9/4 540 м
[Cb cap Ac As Cs]
+24.0 +22.8 93 +32 +32 очень
душно
1009.0 1002.3
00 17.08 В 2 12 км мгла {туман} 8/3 540 м
[Cu med, cong Cs]
+28.6 +24.6 79 +41 +45 опасность
перегрева
1012.3 1005.7 +23.2 3
06 17.08 СЗ 3 12 км мгла {туман} 6/4 500 м
[Cb cap Ci sp]
+32.8 +22.2 54 +42 +49 опасность
перегрева
1009.2 1002.7
09 17.08 СЗ 2 10 км мгла {туман} 8/4 500 м
[Cb cap Cs]
+30.2 +26.1 79 +46 +46 опасность
перегрева
1008.9 1002.3
12 17.08 ЮЗ 2 8000 м слаб. дождь 10/5 540 м
[Cb cap Ac As]
+27.4 +23.4 79 +37 +37 очень
душно
1011.6 1005.0 +33.7 4
15 17.08 Ю 2 8000 м слаб. дождь {туман} 10/5 540 м
[Cb cap Ac As]
+25.8 +23.0 85 +34 +34 очень
душно
1010.8 1004.1 2
18 17.08 штиль 0 10 км зарница {ливн. осадки, дождь} 9/4 540 м
[Cb cap Ac As]
+25.1 +22.9 88 +33 +33 очень
душно
1009.6 1002.9 2
21 17.08 Ю 2 10 км мгла {туман} 9/4 500 м
[Cu Sc Cs]
+24.2 +22.6 91 +32 +32 очень
душно
1008.9 1002.2
00 18.08 В 2 12 км мгла {туман} 5/4 540 м
[Cu hum Ci sp]
+28.4 +25.2 83 +41 +46 опасность
перегрева
1012.7 1006.1 +22.8 5
03 18.08 СЗ 3 12 км мгла {туман} 5/4 540 м
[Cu med, cong Ci sp]
+32.0 +26.1 71 +48 +58 опасность
перегрева
1011.9 1005.3
06 18.08 З 2 12 км мгла {туман} 5/4 500 м
[Cb cap Ci sp]
+32.0 +23.1 59 +42 +51 опасность
перегрева
1008.8 1002.3
09 18.08 ЮВ 2 10 км мгла {туман} 9/4 480 м
[Cb cap Ac As Cs]
+31.3 +23.8 64 +42 +43 опасность
перегрева
1008.3 1001.8
12 18.08 СВ 1 8000 м слаб. ливневой дождь {туман} 10/4 480 м
[Cb cap Ac As]
+28.5 +23.6 75 +39 +39 очень
душно
1010.5 1003.9 +33.0 0.0
15 18.08 Ю 2 10 км мгла {туман} 10/4 500 м
[Cu Sc Ac As Cs]
+26.0 +23.2 85 +35 +35 очень
душно
1009.6 1002.9 0.0
18 18.08 штиль 0 10 км мгла {туман} 10/4 500 м
[Cu Sc Ac As Cs]
+25.1 +23.1 89 +34 +34 очень
душно
1008.2 1001.5 0.0
21 18.08 штиль 0 10 км мгла {туман} 10/4 500 м
[Cu Sc Ac As Cs]
+24.8 +22.7 88 +33 +33 очень
душно
1009.0 1002.3
00 19.08 ЮВ 2 12 км мгла {туман} 4/3 540 м
[Cu hum Ci sp]
+26.8 +23.8 84 +37 +42 очень
душно
1010.9 1004.2 +22.6 0.0
03 19.08 СЗ 3 12 км мгла {туман} 5/4 540 м
[Cu med, cong Ci sp]
+30.4 +22.0 61 +39 +49 очень
душно
1009.5 1002.9
06 19.08 З 3 12 км мгла {туман} 6/4 500 м
[Cb cap Ci sp]
+31.8 +22.7 59 +42 +49 опасность
перегрева
1006.7 1000.2

 

Местоположение метеостанции Котобато (Филиппины): широта 7.17 долгота 124.22 высота над уровнем моря 58 м.

В архиве по умолчанию представлена погода в Котобато за последнюю неделю. Архивные данные за месяц целиком и за предыдущие месяцы, начиная с января 2011 года, Вы можете получить, выбрав интересующий диапазон дат из раскрывающегося списка и нажав кнопку "Ввод!".


*Определитесь, кто Вы:
робот инопланетянин человек

Внимание! Время в таблицах - всемирное. Для получения местного времени необходимо прибавить поправку, которая равна 8 ч.

Смотрите также архив погоды в соседних городах и на ближайших метеорологических станциях:

Погода в Кагаян-де-Оро (Филиппины) (140 км)
Погода в Малайбалае (Филиппины) (144 км)
Погода в Генерал-Сантосе (Филиппины) (158 км)
Погода в Давао (Филиппины) (158 км)
Погода в Дипологе (Филиппины) (186 км)
Погода в Замбоанге (Филиппины) (240 км)
Погода в Бутуане (Филиппины) (242 км)
Погода в Думагете (Филиппины) (258 км)
Погода в Хинатуане (Филиппины) (268 км)
Погода в Тагбиларане (Филиппины) (273 км)

Пояснения к столбцам:

Ветер - указаны скорость ветра в м/с - средняя за 10 мин, порывы в срок и между сроками (в фигурных скобках) и направление, откуда дует ветер: С - северный, СВ - северо-восточный, В - восточный, ЮВ - юго-восточный, Ю - южный, ЮЗ - юго-западный, З - западный, СЗ - северо-западный.
Видимость - горизонтальная дальность видимости в метрах или километрах. При видимости от 1 до 10 км при отсутствии осадков обычно наблюдается дымка, при ухудшении видимости до 1 км и менее - туман. В сухую погоду видимость может ухудшаться дымом, пылью или мглою.
Явления - указаны атмосферные явления, наблюдавшиеся в срок или в последний час перед сроком; фигурными скобками обозначены явления, наблюдавшиеся между сроками (за 1-3 часа до срока); квадратными скобками обозначены град или гололедные отложения с указанием их диаметра в мм.
Облачность - указаны через наклонную черту общая и нижняя облачность в баллах и высота нижней границы облаков в метрах; квадратными скобками обозначены формы облаков: Ci - перистые, Cs - перисто-слоистые, Cc - перисто-кучевые, Ac - высококучевые, As - высокослоистые, Sc - слоисто-кучевые, Ns - слоисто-дождевые, Cu - кучевые, Cb - кучево-дождевые. Подробнее классификацию облаков см. в Атласе облаков (PDF).
T - Температура воздуха - температура, измеренная на высоте 2 м над землей.
Td - Температура точки росы - температура, при понижении до которой содержащийся в воздухе водяной пар достигнет насыщения.
f - Относительная влажность воздуха - влажноcть воздуха, измеренная на высоте 2 м над землей.
Te - Эффективная температура - температура, которую ощущает одетый по сезону человек в тени. Характеристика душности погоды. При расчете учитывается влияние влажности воздуха и скорости ветра на теплоощущения человека.
Tes - Эффективная температура на солнце - температура, которую ощущает человек, с поправкой на солнечный нагрев. Характеристика знойности погоды. Зависит от высоты солнца над горизонтом, облачности и скорости ветра. Ночью, в пасмурную погоду, а также при ветре 12 м/с и более поправка равна нулю.
P - Атмосферное давление - приведенное к уровню моря атмосферное давление.
Po - Атмосферное давление - измеренное на уровне метеостанции атмосферное давление.
Tmin - Минимальная температура - минимум температуры воздуха на высоте 2 м над землей.
Tmax - Максимальная температура - максимум температуры воздуха на высоте 2 м над землей.
R - Количество осадков - Количество выпавших осадков за период времени, мм. При наведении курсора мыши на число - период времени, за который выпало указанное количество осадков.
R24 - Количество осадков - Количество выпавших осадков за 24 часа, мм.
S - Снежный покров - Высота снежного покрова, см. При наведении курсора мыши на число - состояние снежного покрова и степень покрытия местности в баллах.